Date_Time,Julian_Date,Latitude,Longitude,Instrument_Depth,Water_Temperature
(yyyy-mm-dd hh:mn:ss UTC),(JD),(+ deg. North),(+ deg. East),(m),(deg. C)
1985-01-25 13:36:00 UTC,2446091.066667,27.4197,-84.6250,0050,21.6400
1985-01-25 14:06:00 UTC,2446091.087500,27.4197,-84.6250,0050,21.6400
1985-01-25 14:36:00 UTC,2446091.108333,27.4197,-84.6250,0050,21.5300
1985-01-25 15:06:00 UTC,2446091.129167,27.4197,-84.6250,0050,21.5000
1985-01-25 15:36:00 UTC,2446091.150000,27.4197,-84.6250,0050,21.4800
1985-01-25 16:06:00 UTC,2446091.170833,27.4197,-84.6250,0050,21.4800
1985-01-25 16:36:00 UTC,2446091.191667,27.4197,-84.6250,0050,21.4800
1985-01-25 17:06:00 UTC,2446091.212500,27.4197,-84.6250,0050,21.4700
1985-01-25 17:36:00 UTC,2446091.233333,27.4197,-84.6250,0050,21.4700
1985-01-25 18:06:00 UTC,2446091.254167,27.4197,-84.6250,0050,21.4700
1985-01-25 18:36:00 UTC,2446091.275000,27.4197,-84.6250,0050,21.4700
1985-01-25 19:06:00 UTC,2446091.295833,27.4197,-84.6250,0050,21.4700
1985-01-25 19:36:00 UTC,2446091.316667,27.4197,-84.6250,0050,21.4500
1985-01-25 20:06:00 UTC,2446091.337500,27.4197,-84.6250,0050,21.4500
1985-01-25 20:36:00 UTC,2446091.358333,27.4197,-84.6250,0050,21.4400
1985-01-25 21:06:00 UTC,2446091.379167,27.4197,-84.6250,0050,21.4400
1985-01-25 21:36:00 UTC,2446091.400000,27.4197,-84.6250,0050,21.4400
1985-01-25 22:06:00 UTC,2446091.420833,27.4197,-84.6250,0050,21.4200
1985-01-25 22:36:00 UTC,2446091.441667,27.4197,-84.6250,0050,21.4500
1985-01-25 23:06:00 UTC,2446091.462500,27.4197,-84.6250,0050,21.4500
1985-01-25 23:36:00 UTC,2446091.483333,27.4197,-84.6250,0050,21.4500
1985-01-26 00:06:00 UTC,2446091.504167,27.4197,-84.6250,0050,21.4400
1985-01-26 00:36:00 UTC,2446091.525000,27.4197,-84.6250,0050,21.4400
1985-01-26 01:06:00 UTC,2446091.545833,27.4197,-84.6250,0050,21.4400
1985-01-26 01:36:00 UTC,2446091.566667,27.4197,-84.6250,0050,21.4400
1985-01-26 02:06:00 UTC,2446091.587500,27.4197,-84.6250,0050,21.4300
1985-01-26 02:36:00 UTC,2446091.608333,27.4197,-84.6250,0050,21.4400
1985-01-26 03:06:00 UTC,2446091.629167,27.4197,-84.6250,0050,21.4400
1985-01-26 03:36:00 UTC,2446091.650000,27.4197,-84.6250,0050,21.4400
1985-01-26 04:06:00 UTC,2446091.670833,27.4197,-84.6250,0050,21.4300
1985-01-26 04:36:00 UTC,2446091.691667,27.4197,-84.6250,0050,21.4400
1985-01-26 05:06:00 UTC,2446091.712500,27.4197,-84.6250,0050,21.4200
1985-01-26 05:36:00 UTC,2446091.733333,27.4197,-84.6250,0050,21.4100
1985-01-26 06:06:00 UTC,2446091.754167,27.4197,-84.6250,0050,21.4000
1985-01-26 06:36:00 UTC,2446091.775000,27.4197,-84.6250,0050,21.4000
1985-01-26 07:06:00 UTC,2446091.795833,27.4197,-84.6250,0050,21.4000
1985-01-26 07:36:00 UTC,2446091.816667,27.4197,-84.6250,0050,21.4000
1985-01-26 08:06:00 UTC,2446091.837500,27.4197,-84.6250,0050,21.4000
1985-01-26 08:36:00 UTC,2446091.858333,27.4197,-84.6250,0050,21.4000
1985-01-26 09:06:00 UTC,2446091.879167,27.4197,-84.6250,0050,21.3900
1985-01-26 09:36:00 UTC,2446091.900000,27.4197,-84.6250,0050,21.3900
1985-01-26 10:06:00 UTC,2446091.920833,27.4197,-84.6250,0050,21.3900
1985-01-26 10:36:00 UTC,2446091.941667,27.4197,-84.6250,0050,21.3900
1985-01-26 11:06:00 UTC,2446091.962500,27.4197,-84.6250,0050,21.4000
1985-01-26 11:36:00 UTC,2446091.983333,27.4197,-84.6250,0050,21.4000
1985-01-26 12:06:00 UTC,2446092.004167,27.4197,-84.6250,0050,21.4000
1985-01-26 12:36:00 UTC,2446092.025000,27.4197,-84.6250,0050,21.3900
1985-01-26 13:06:00 UTC,2446092.045833,27.4197,-84.6250,0050,21.3800
1985-01-26 13:36:00 UTC,2446092.066667,27.4197,-84.6250,0050,21.3700
1985-01-26 14:06:00 UTC,2446092.087500,27.4197,-84.6250,0050,21.3700
1985-01-26 14:36:00 UTC,2446092.108333,27.4197,-84.6250,0050,21.3600
1985-01-26 15:06:00 UTC,2446092.129167,27.4197,-84.6250,0050,21.3600
1985-01-26 15:36:00 UTC,2446092.150000,27.4197,-84.6250,0050,21.3600
1985-01-26 16:06:00 UTC,2446092.170833,27.4197,-84.6250,0050,21.3500
1985-01-26 16:36:00 UTC,2446092.191667,27.4197,-84.6250,0050,21.3600
1985-01-26 17:06:00 UTC,2446092.212500,27.4197,-84.6250,0050,21.3600
1985-01-26 17:36:00 UTC,2446092.233333,27.4197,-84.6250,0050,21.3600
1985-01-26 18:06:00 UTC,2446092.254167,27.4197,-84.6250,0050,21.3600
1985-01-26 18:36:00 UTC,2446092.275000,27.4197,-84.6250,0050,21.3600
1985-01-26 19:06:00 UTC,2446092.295833,27.4197,-84.6250,0050,21.3700
1985-01-26 19:36:00 UTC,2446092.316667,27.4197,-84.6250,0050,21.3700
1985-01-26 20:06:00 UTC,2446092.337500,27.4197,-84.6250,0050,21.3900
1985-01-26 20:36:00 UTC,2446092.358333,27.4197,-84.6250,0050,21.3900
1985-01-26 21:06:00 UTC,2446092.379167,27.4197,-84.6250,0050,21.4000
1985-01-26 21:36:00 UTC,2446092.400000,27.4197,-84.6250,0050,21.4100
1985-01-26 22:06:00 UTC,2446092.420833,27.4197,-84.6250,0050,21.4100
1985-01-26 22:36:00 UTC,2446092.441667,27.4197,-84.6250,0050,21.4100
1985-01-26 23:06:00 UTC,2446092.462500,27.4197,-84.6250,0050,21.4200
1985-01-26 23:36:00 UTC,2446092.483333,27.4197,-84.6250,0050,21.4200
1985-01-27 00:06:00 UTC,2446092.504167,27.4197,-84.6250,0050,21.4200
1985-01-27 00:36:00 UTC,2446092.525000,27.4197,-84.6250,0050,21.4200
1985-01-27 01:06:00 UTC,2446092.545833,27.4197,-84.6250,0050,21.4200
1985-01-27 01:36:00 UTC,2446092.566667,27.4197,-84.6250,0050,21.4200
1985-01-27 02:06:00 UTC,2446092.587500,27.4197,-84.6250,0050,21.4100
1985-01-27 02:36:00 UTC,2446092.608333,27.4197,-84.6250,0050,21.4000
1985-01-27 03:06:00 UTC,2446092.629167,27.4197,-84.6250,0050,21.3900
1985-01-27 03:36:00 UTC,2446092.650000,27.4197,-84.6250,0050,21.3800
1985-01-27 04:06:00 UTC,2446092.670833,27.4197,-84.6250,0050,21.3700
1985-01-27 04:36:00 UTC,2446092.691667,27.4197,-84.6250,0050,21.3800
1985-01-27 05:06:00 UTC,2446092.712500,27.4197,-84.6250,0050,21.3800
1985-01-27 05:36:00 UTC,2446092.733333,27.4197,-84.6250,0050,21.3700
1985-01-27 06:06:00 UTC,2446092.754167,27.4197,-84.6250,0050,21.3700
1985-01-27 06:36:00 UTC,2446092.775000,27.4197,-84.6250,0050,21.3600
1985-01-27 07:06:00 UTC,2446092.795833,27.4197,-84.6250,0050,21.3600
1985-01-27 07:36:00 UTC,2446092.816667,27.4197,-84.6250,0050,21.3600
1985-01-27 08:06:00 UTC,2446092.837500,27.4197,-84.6250,0050,21.3400
1985-01-27 08:36:00 UTC,2446092.858333,27.4197,-84.6250,0050,21.3400
1985-01-27 09:06:00 UTC,2446092.879167,27.4197,-84.6250,0050,21.3300
1985-01-27 09:36:00 UTC,2446092.900000,27.4197,-84.6250,0050,21.3300
1985-01-27 10:06:00 UTC,2446092.920833,27.4197,-84.6250,0050,21.3100
1985-01-27 10:36:00 UTC,2446092.941667,27.4197,-84.6250,0050,21.3100
1985-01-27 11:06:00 UTC,2446092.962500,27.4197,-84.6250,0050,21.2900
1985-01-27 11:36:00 UTC,2446092.983333,27.4197,-84.6250,0050,21.2900
1985-01-27 12:06:00 UTC,2446093.004167,27.4197,-84.6250,0050,21.2800
1985-01-27 12:36:00 UTC,2446093.025000,27.4197,-84.6250,0050,21.2800
1985-01-27 13:06:00 UTC,2446093.045833,27.4197,-84.6250,0050,21.2600
1985-01-27 13:36:00 UTC,2446093.066667,27.4197,-84.6250,0050,21.2600
1985-01-27 14:06:00 UTC,2446093.087500,27.4197,-84.6250,0050,21.2500
1985-01-27 14:36:00 UTC,2446093.108333,27.4197,-84.6250,0050,21.2500
1985-01-27 15:06:00 UTC,2446093.129167,27.4197,-84.6250,0050,21.2500
1985-01-27 15:36:00 UTC,2446093.150000,27.4197,-84.6250,0050,21.2500
1985-01-27 16:06:00 UTC,2446093.170833,27.4197,-84.6250,0050,21.2400
1985-01-27 16:36:00 UTC,2446093.191667,27.4197,-84.6250,0050,21.2300
1985-01-27 17:06:00 UTC,2446093.212500,27.4197,-84.6250,0050,21.2300
1985-01-27 17:36:00 UTC,2446093.233333,27.4197,-84.6250,0050,21.2300
1985-01-27 18:06:00 UTC,2446093.254167,27.4197,-84.6250,0050,21.2300
1985-01-27 18:36:00 UTC,2446093.275000,27.4197,-84.6250,0050,21.2300
1985-01-27 19:06:00 UTC,2446093.295833,27.4197,-84.6250,0050,21.2300
1985-01-27 19:36:00 UTC,2446093.316667,27.4197,-84.6250,0050,21.2200
1985-01-27 20:06:00 UTC,2446093.337500,27.4197,-84.6250,0050,21.2200
1985-01-27 20:36:00 UTC,2446093.358333,27.4197,-84.6250,0050,21.2000
1985-01-27 21:06:00 UTC,2446093.379167,27.4197,-84.6250,0050,21.2000
1985-01-27 21:36:00 UTC,2446093.400000,27.4197,-84.6250,0050,21.2000
1985-01-27 22:06:00 UTC,2446093.420833,27.4197,-84.6250,0050,21.2000
1985-01-27 22:36:00 UTC,2446093.441667,27.4197,-84.6250,0050,21.2000
1985-01-27 23:06:00 UTC,2446093.462500,27.4197,-84.6250,0050,21.2000
1985-01-27 23:36:00 UTC,2446093.483333,27.4197,-84.6250,0050,21.2000
1985-01-28 00:06:00 UTC,2446093.504167,27.4197,-84.6250,0050,21.2000
1985-01-28 00:36:00 UTC,2446093.525000,27.4197,-84.6250,0050,21.2000
1985-01-28 01:06:00 UTC,2446093.545833,27.4197,-84.6250,0050,21.2000
1985-01-28 01:36:00 UTC,2446093.566667,27.4197,-84.6250,0050,21.2200
1985-01-28 02:06:00 UTC,2446093.587500,27.4197,-84.6250,0050,21.2500
1985-01-28 02:36:00 UTC,2446093.608333,27.4197,-84.6250,0050,21.2600
1985-01-28 03:06:00 UTC,2446093.629167,27.4197,-84.6250,0050,21.2800
1985-01-28 03:36:00 UTC,2446093.650000,27.4197,-84.6250,0050,21.2700
1985-01-28 04:06:00 UTC,2446093.670833,27.4197,-84.6250,0050,21.2800
1985-01-28 04:36:00 UTC,2446093.691667,27.4197,-84.6250,0050,21.2800
1985-01-28 05:06:00 UTC,2446093.712500,27.4197,-84.6250,0050,21.2800
1985-01-28 05:36:00 UTC,2446093.733333,27.4197,-84.6250,0050,21.2900
1985-01-28 06:06:00 UTC,2446093.754167,27.4197,-84.6250,0050,21.2800
1985-01-28 06:36:00 UTC,2446093.775000,27.4197,-84.6250,0050,21.2800
1985-01-28 07:06:00 UTC,2446093.795833,27.4197,-84.6250,0050,21.2800
1985-01-28 07:36:00 UTC,2446093.816667,27.4197,-84.6250,0050,21.2700
1985-01-28 08:06:00 UTC,2446093.837500,27.4197,-84.6250,0050,21.2600
1985-01-28 08:36:00 UTC,2446093.858333,27.4197,-84.6250,0050,21.2600
1985-01-28 09:06:00 UTC,2446093.879167,27.4197,-84.6250,0050,21.2600
1985-01-28 09:36:00 UTC,2446093.900000,27.4197,-84.6250,0050,21.2500
1985-01-28 10:06:00 UTC,2446093.920833,27.4197,-84.6250,0050,21.2500
1985-01-28 10:36:00 UTC,2446093.941667,27.4197,-84.6250,0050,21.2300
1985-01-28 11:06:00 UTC,2446093.962500,27.4197,-84.6250,0050,21.2200
1985-01-28 11:36:00 UTC,2446093.983333,27.4197,-84.6250,0050,21.2200
1985-01-28 12:06:00 UTC,2446094.004167,27.4197,-84.6250,0050,21.2100
1985-01-28 12:36:00 UTC,2446094.025000,27.4197,-84.6250,0050,21.2000
1985-01-28 13:06:00 UTC,2446094.045833,27.4197,-84.6250,0050,21.2000
1985-01-28 13:36:00 UTC,2446094.066667,27.4197,-84.6250,0050,21.1900
1985-01-28 14:06:00 UTC,2446094.087500,27.4197,-84.6250,0050,21.1900
1985-01-28 14:36:00 UTC,2446094.108333,27.4197,-84.6250,0050,21.1800
1985-01-28 15:06:00 UTC,2446094.129167,27.4197,-84.6250,0050,21.1700
1985-01-28 15:36:00 UTC,2446094.150000,27.4197,-84.6250,0050,21.1600
1985-01-28 16:06:00 UTC,2446094.170833,27.4197,-84.6250,0050,21.1500
1985-01-28 16:36:00 UTC,2446094.191667,27.4197,-84.6250,0050,21.1200
1985-01-28 17:06:00 UTC,2446094.212500,27.4197,-84.6250,0050,21.1100
1985-01-28 17:36:00 UTC,2446094.233333,27.4197,-84.6250,0050,21.0900
1985-01-28 18:06:00 UTC,2446094.254167,27.4197,-84.6250,0050,21.0800
1985-01-28 18:36:00 UTC,2446094.275000,27.4197,-84.6250,0050,21.0600
1985-01-28 19:06:00 UTC,2446094.295833,27.4197,-84.6250,0050,21.0400
1985-01-28 19:36:00 UTC,2446094.316667,27.4197,-84.6250,0050,21.0400
1985-01-28 20:06:00 UTC,2446094.337500,27.4197,-84.6250,0050,21.0400
1985-01-28 20:36:00 UTC,2446094.358333,27.4197,-84.6250,0050,21.0400
1985-01-28 21:06:00 UTC,2446094.379167,27.4197,-84.6250,0050,21.0600
1985-01-28 21:36:00 UTC,2446094.400000,27.4197,-84.6250,0050,21.0400
1985-01-28 22:06:00 UTC,2446094.420833,27.4197,-84.6250,0050,21.0600
1985-01-28 22:36:00 UTC,2446094.441667,27.4197,-84.6250,0050,21.0600
1985-01-28 23:06:00 UTC,2446094.462500,27.4197,-84.6250,0050,21.0800
1985-01-28 23:36:00 UTC,2446094.483333,27.4197,-84.6250,0050,21.0900
1985-01-29 00:06:00 UTC,2446094.504167,27.4197,-84.6250,0050,21.0900
1985-01-29 00:36:00 UTC,2446094.525000,27.4197,-84.6250,0050,21.0900
1985-01-29 01:06:00 UTC,2446094.545833,27.4197,-84.6250,0050,21.0800
1985-01-29 01:36:00 UTC,2446094.566667,27.4197,-84.6250,0050,21.0900
1985-01-29 02:06:00 UTC,2446094.587500,27.4197,-84.6250,0050,21.1100
1985-01-29 02:36:00 UTC,2446094.608333,27.4197,-84.6250,0050,21.1100
1985-01-29 03:06:00 UTC,2446094.629167,27.4197,-84.6250,0050,21.1100
1985-01-29 03:36:00 UTC,2446094.650000,27.4197,-84.6250,0050,21.1200
1985-01-29 04:06:00 UTC,2446094.670833,27.4197,-84.6250,0050,21.1200
1985-01-29 04:36:00 UTC,2446094.691667,27.4197,-84.6250,0050,21.1300
1985-01-29 05:06:00 UTC,2446094.712500,27.4197,-84.6250,0050,21.1400
1985-01-29 05:36:00 UTC,2446094.733333,27.4197,-84.6250,0050,21.1400
1985-01-29 06:06:00 UTC,2446094.754167,27.4197,-84.6250,0050,21.1400
1985-01-29 06:36:00 UTC,2446094.775000,27.4197,-84.6250,0050,21.1400
1985-01-29 07:06:00 UTC,2446094.795833,27.4197,-84.6250,0050,21.1400
1985-01-29 07:36:00 UTC,2446094.816667,27.4197,-84.6250,0050,21.1400
1985-01-29 08:06:00 UTC,2446094.837500,27.4197,-84.6250,0050,21.1400
1985-01-29 08:36:00 UTC,2446094.858333,27.4197,-84.6250,0050,21.1400
1985-01-29 09:06:00 UTC,2446094.879167,27.4197,-84.6250,0050,21.1300
1985-01-29 09:36:00 UTC,2446094.900000,27.4197,-84.6250,0050,21.1200
1985-01-29 10:06:00 UTC,2446094.920833,27.4197,-84.6250,0050,21.1200
1985-01-29 10:36:00 UTC,2446094.941667,27.4197,-84.6250,0050,21.1200
1985-01-29 11:06:00 UTC,2446094.962500,27.4197,-84.6250,0050,21.1200
1985-01-29 11:36:00 UTC,2446094.983333,27.4197,-84.6250,0050,21.1100
1985-01-29 12:06:00 UTC,2446095.004167,27.4197,-84.6250,0050,21.1000
1985-01-29 12:36:00 UTC,2446095.025000,27.4197,-84.6250,0050,21.0900
1985-01-29 13:06:00 UTC,2446095.045833,27.4197,-84.6250,0050,21.0900
1985-01-29 13:36:00 UTC,2446095.066667,27.4197,-84.6250,0050,21.0900
1985-01-29 14:06:00 UTC,2446095.087500,27.4197,-84.6250,0050,21.0800
1985-01-29 14:36:00 UTC,2446095.108333,27.4197,-84.6250,0050,21.0600
1985-01-29 15:06:00 UTC,2446095.129167,27.4197,-84.6250,0050,21.0400
1985-01-29 15:36:00 UTC,2446095.150000,27.4197,-84.6250,0050,21.0400
1985-01-29 16:06:00 UTC,2446095.170833,27.4197,-84.6250,0050,21.0300
1985-01-29 16:36:00 UTC,2446095.191667,27.4197,-84.6250,0050,21.0300
1985-01-29 17:06:00 UTC,2446095.212500,27.4197,-84.6250,0050,21.0300
1985-01-29 17:36:00 UTC,2446095.233333,27.4197,-84.6250,0050,21.0200
1985-01-29 18:06:00 UTC,2446095.254167,27.4197,-84.6250,0050,21.0100
1985-01-29 18:36:00 UTC,2446095.275000,27.4197,-84.6250,0050,21.0100
1985-01-29 19:06:00 UTC,2446095.295833,27.4197,-84.6250,0050,21.0100
1985-01-29 19:36:00 UTC,2446095.316667,27.4197,-84.6250,0050,21.0300
1985-01-29 20:06:00 UTC,2446095.337500,27.4197,-84.6250,0050,21.0300
1985-01-29 20:36:00 UTC,2446095.358333,27.4197,-84.6250,0050,21.0400
1985-01-29 21:06:00 UTC,2446095.379167,27.4197,-84.6250,0050,21.0600
1985-01-29 21:36:00 UTC,2446095.400000,27.4197,-84.6250,0050,21.0800
1985-01-29 22:06:00 UTC,2446095.420833,27.4197,-84.6250,0050,21.0900
1985-01-29 22:36:00 UTC,2446095.441667,27.4197,-84.6250,0050,21.1000
1985-01-29 23:06:00 UTC,2446095.462500,27.4197,-84.6250,0050,21.1100
1985-01-29 23:36:00 UTC,2446095.483333,27.4197,-84.6250,0050,21.1200
1985-01-30 00:06:00 UTC,2446095.504167,27.4197,-84.6250,0050,21.1200
1985-01-30 00:36:00 UTC,2446095.525000,27.4197,-84.6250,0050,21.1200
1985-01-30 01:06:00 UTC,2446095.545833,27.4197,-84.6250,0050,21.1200
1985-01-30 01:36:00 UTC,2446095.566667,27.4197,-84.6250,0050,21.1400
1985-01-30 02:06:00 UTC,2446095.587500,27.4197,-84.6250,0050,21.1300
1985-01-30 02:36:00 UTC,2446095.608333,27.4197,-84.6250,0050,21.1200
1985-01-30 03:06:00 UTC,2446095.629167,27.4197,-84.6250,0050,21.1400
1985-01-30 03:36:00 UTC,2446095.650000,27.4197,-84.6250,0050,21.1400
1985-01-30 04:06:00 UTC,2446095.670833,27.4197,-84.6250,0050,21.1600
1985-01-30 04:36:00 UTC,2446095.691667,27.4197,-84.6250,0050,21.1700
1985-01-30 05:06:00 UTC,2446095.712500,27.4197,-84.6250,0050,21.1900
1985-01-30 05:36:00 UTC,2446095.733333,27.4197,-84.6250,0050,21.1900
1985-01-30 06:06:00 UTC,2446095.754167,27.4197,-84.6250,0050,21.2000
1985-01-30 06:36:00 UTC,2446095.775000,27.4197,-84.6250,0050,21.2000
1985-01-30 07:06:00 UTC,2446095.795833,27.4197,-84.6250,0050,21.2000
1985-01-30 07:36:00 UTC,2446095.816667,27.4197,-84.6250,0050,21.2000
1985-01-30 08:06:00 UTC,2446095.837500,27.4197,-84.6250,0050,21.2000
1985-01-30 08:36:00 UTC,2446095.858333,27.4197,-84.6250,0050,21.2000
1985-01-30 09:06:00 UTC,2446095.879167,27.4197,-84.6250,0050,21.2000
1985-01-30 09:36:00 UTC,2446095.900000,27.4197,-84.6250,0050,21.2000
1985-01-30 10:06:00 UTC,2446095.920833,27.4197,-84.6250,0050,21.2000
1985-01-30 10:36:00 UTC,2446095.941667,27.4197,-84.6250,0050,21.2000
1985-01-30 11:06:00 UTC,2446095.962500,27.4197,-84.6250,0050,21.2000
1985-01-30 11:36:00 UTC,2446095.983333,27.4197,-84.6250,0050,21.2000
1985-01-30 12:06:00 UTC,2446096.004167,27.4197,-84.6250,0050,21.1900
1985-01-30 12:36:00 UTC,2446096.025000,27.4197,-84.6250,0050,21.1900
1985-01-30 13:06:00 UTC,2446096.045833,27.4197,-84.6250,0050,21.1900
1985-01-30 13:36:00 UTC,2446096.066667,27.4197,-84.6250,0050,21.1800
1985-01-30 14:06:00 UTC,2446096.087500,27.4197,-84.6250,0050,21.1700
1985-01-30 14:36:00 UTC,2446096.108333,27.4197,-84.6250,0050,21.1800
1985-01-30 15:06:00 UTC,2446096.129167,27.4197,-84.6250,0050,21.1800
1985-01-30 15:36:00 UTC,2446096.150000,27.4197,-84.6250,0050,21.1800
1985-01-30 16:06:00 UTC,2446096.170833,27.4197,-84.6250,0050,21.1800
1985-01-30 16:36:00 UTC,2446096.191667,27.4197,-84.6250,0050,21.1900
1985-01-30 17:06:00 UTC,2446096.212500,27.4197,-84.6250,0050,21.1900
1985-01-30 17:36:00 UTC,2446096.233333,27.4197,-84.6250,0050,21.1900
1985-01-30 18:06:00 UTC,2446096.254167,27.4197,-84.6250,0050,21.1900
1985-01-30 18:36:00 UTC,2446096.275000,27.4197,-84.6250,0050,21.1900
1985-01-30 19:06:00 UTC,2446096.295833,27.4197,-84.6250,0050,21.2000
1985-01-30 19:36:00 UTC,2446096.316667,27.4197,-84.6250,0050,21.2000
1985-01-30 20:06:00 UTC,2446096.337500,27.4197,-84.6250,0050,21.2000
1985-01-30 20:36:00 UTC,2446096.358333,27.4197,-84.6250,0050,21.2000
1985-01-30 21:06:00 UTC,2446096.379167,27.4197,-84.6250,0050,21.2200
1985-01-30 21:36:00 UTC,2446096.400000,27.4197,-84.6250,0050,21.2300
1985-01-30 22:06:00 UTC,2446096.420833,27.4197,-84.6250,0050,21.2300
1985-01-30 22:36:00 UTC,2446096.441667,27.4197,-84.6250,0050,21.2300
1985-01-30 23:06:00 UTC,2446096.462500,27.4197,-84.6250,0050,21.2300
1985-01-30 23:36:00 UTC,2446096.483333,27.4197,-84.6250,0050,21.2300
1985-01-31 00:06:00 UTC,2446096.504167,27.4197,-84.6250,0050,21.2300
1985-01-31 00:36:00 UTC,2446096.525000,27.4197,-84.6250,0050,21.2300
1985-01-31 01:06:00 UTC,2446096.545833,27.4197,-84.6250,0050,21.2300
1985-01-31 01:36:00 UTC,2446096.566667,27.4197,-84.6250,0050,21.2300
1985-01-31 02:06:00 UTC,2446096.587500,27.4197,-84.6250,0050,21.2300
1985-01-31 02:36:00 UTC,2446096.608333,27.4197,-84.6250,0050,21.2200
1985-01-31 03:06:00 UTC,2446096.629167,27.4197,-84.6250,0050,21.2200
1985-01-31 03:36:00 UTC,2446096.650000,27.4197,-84.6250,0050,21.2200
1985-01-31 04:06:00 UTC,2446096.670833,27.4197,-84.6250,0050,21.2200
1985-01-31 04:36:00 UTC,2446096.691667,27.4197,-84.6250,0050,21.2200
1985-01-31 05:06:00 UTC,2446096.712500,27.4197,-84.6250,0050,21.2200
1985-01-31 05:36:00 UTC,2446096.733333,27.4197,-84.6250,0050,21.2200
1985-01-31 06:06:00 UTC,2446096.754167,27.4197,-84.6250,0050,21.2200
1985-01-31 06:36:00 UTC,2446096.775000,27.4197,-84.6250,0050,21.2200
1985-01-31 07:06:00 UTC,2446096.795833,27.4197,-84.6250,0050,21.2200
1985-01-31 07:36:00 UTC,2446096.816667,27.4197,-84.6250,0050,21.2200
1985-01-31 08:06:00 UTC,2446096.837500,27.4197,-84.6250,0050,21.2200
1985-01-31 08:36:00 UTC,2446096.858333,27.4197,-84.6250,0050,21.2200
1985-01-31 09:06:00 UTC,2446096.879167,27.4197,-84.6250,0050,21.2300
1985-01-31 09:36:00 UTC,2446096.900000,27.4197,-84.6250,0050,21.2300
1985-01-31 10:06:00 UTC,2446096.920833,27.4197,-84.6250,0050,21.2300
1985-01-31 10:36:00 UTC,2446096.941667,27.4197,-84.6250,0050,21.2500
1985-01-31 11:06:00 UTC,2446096.962500,27.4197,-84.6250,0050,21.2500
1985-01-31 11:36:00 UTC,2446096.983333,27.4197,-84.6250,0050,21.2400
1985-01-31 12:06:00 UTC,2446097.004167,27.4197,-84.6250,0050,21.2500
1985-01-31 12:36:00 UTC,2446097.025000,27.4197,-84.6250,0050,21.2500
1985-01-31 13:06:00 UTC,2446097.045833,27.4197,-84.6250,0050,21.2400
1985-01-31 13:36:00 UTC,2446097.066667,27.4197,-84.6250,0050,21.2300
1985-01-31 14:06:00 UTC,2446097.087500,27.4197,-84.6250,0050,21.2300
1985-01-31 14:36:00 UTC,2446097.108333,27.4197,-84.6250,0050,21.2300
1985-01-31 15:06:00 UTC,2446097.129167,27.4197,-84.6250,0050,21.2200
1985-01-31 15:36:00 UTC,2446097.150000,27.4197,-84.6250,0050,21.2200
1985-01-31 16:06:00 UTC,2446097.170833,27.4197,-84.6250,0050,21.2200
1985-01-31 16:36:00 UTC,2446097.191667,27.4197,-84.6250,0050,21.2000
1985-01-31 17:06:00 UTC,2446097.212500,27.4197,-84.6250,0050,21.1900
1985-01-31 17:36:00 UTC,2446097.233333,27.4197,-84.6250,0050,21.1700
1985-01-31 18:06:00 UTC,2446097.254167,27.4197,-84.6250,0050,21.1500
1985-01-31 18:36:00 UTC,2446097.275000,27.4197,-84.6250,0050,21.1400
1985-01-31 19:06:00 UTC,2446097.295833,27.4197,-84.6250,0050,21.1100
1985-01-31 19:36:00 UTC,2446097.316667,27.4197,-84.6250,0050,21.1100
1985-01-31 20:06:00 UTC,2446097.337500,27.4197,-84.6250,0050,21.1100
1985-01-31 20:36:00 UTC,2446097.358333,27.4197,-84.6250,0050,21.0900
1985-01-31 21:06:00 UTC,2446097.379167,27.4197,-84.6250,0050,21.0800
1985-01-31 21:36:00 UTC,2446097.400000,27.4197,-84.6250,0050,21.0500
1985-01-31 22:06:00 UTC,2446097.420833,27.4197,-84.6250,0050,21.0600
1985-01-31 22:36:00 UTC,2446097.441667,27.4197,-84.6250,0050,21.0800
1985-01-31 23:06:00 UTC,2446097.462500,27.4197,-84.6250,0050,21.0800
1985-01-31 23:36:00 UTC,2446097.483333,27.4197,-84.6250,0050,21.0800
1985-02-01 00:06:00 UTC,2446097.504167,27.4197,-84.6250,0050,21.0800
1985-02-01 00:36:00 UTC,2446097.525000,27.4197,-84.6250,0050,21.0800
1985-02-01 01:06:00 UTC,2446097.545833,27.4197,-84.6250,0050,21.0700
1985-02-01 01:36:00 UTC,2446097.566667,27.4197,-84.6250,0050,21.0600
1985-02-01 02:06:00 UTC,2446097.587500,27.4197,-84.6250,0050,21.1100
1985-02-01 02:36:00 UTC,2446097.608333,27.4197,-84.6250,0050,21.1400
1985-02-01 03:06:00 UTC,2446097.629167,27.4197,-84.6250,0050,21.1100
1985-02-01 03:36:00 UTC,2446097.650000,27.4197,-84.6250,0050,21.0800
1985-02-01 04:06:00 UTC,2446097.670833,27.4197,-84.6250,0050,21.0000
1985-02-01 04:36:00 UTC,2446097.691667,27.4197,-84.6250,0050,21.0300
1985-02-01 05:06:00 UTC,2446097.712500,27.4197,-84.6250,0050,21.0600
1985-02-01 05:36:00 UTC,2446097.733333,27.4197,-84.6250,0050,21.0600
1985-02-01 06:06:00 UTC,2446097.754167,27.4197,-84.6250,0050,21.0900
1985-02-01 06:36:00 UTC,2446097.775000,27.4197,-84.6250,0050,21.0900
1985-02-01 07:06:00 UTC,2446097.795833,27.4197,-84.6250,0050,21.1400
1985-02-01 07:36:00 UTC,2446097.816667,27.4197,-84.6250,0050,21.1400
1985-02-01 08:06:00 UTC,2446097.837500,27.4197,-84.6250,0050,21.1700
1985-02-01 08:36:00 UTC,2446097.858333,27.4197,-84.6250,0050,21.1900
1985-02-01 09:06:00 UTC,2446097.879167,27.4197,-84.6250,0050,21.1900
1985-02-01 09:36:00 UTC,2446097.900000,27.4197,-84.6250,0050,21.1900
1985-02-01 10:06:00 UTC,2446097.920833,27.4197,-84.6250,0050,21.1900
1985-02-01 10:36:00 UTC,2446097.941667,27.4197,-84.6250,0050,21.1500
1985-02-01 11:06:00 UTC,2446097.962500,27.4197,-84.6250,0050,21.0800
1985-02-01 11:36:00 UTC,2446097.983333,27.4197,-84.6250,0050,20.9900
1985-02-01 12:06:00 UTC,2446098.004167,27.4197,-84.6250,0050,20.9900
1985-02-01 12:36:00 UTC,2446098.025000,27.4197,-84.6250,0050,21.0100
1985-02-01 13:06:00 UTC,2446098.045833,27.4197,-84.6250,0050,20.9400
1985-02-01 13:36:00 UTC,2446098.066667,27.4197,-84.6250,0050,20.8400
1985-02-01 14:06:00 UTC,2446098.087500,27.4197,-84.6250,0050,20.8000
1985-02-01 14:36:00 UTC,2446098.108333,27.4197,-84.6250,0050,20.7800
1985-02-01 15:06:00 UTC,2446098.129167,27.4197,-84.6250,0050,20.7800
1985-02-01 15:36:00 UTC,2446098.150000,27.4197,-84.6250,0050,20.8000
1985-02-01 16:06:00 UTC,2446098.170833,27.4197,-84.6250,0050,20.8400
1985-02-01 16:36:00 UTC,2446098.191667,27.4197,-84.6250,0050,20.8100
1985-02-01 17:06:00 UTC,2446098.212500,27.4197,-84.6250,0050,20.8100
1985-02-01 17:36:00 UTC,2446098.233333,27.4197,-84.6250,0050,20.7800